KD9OPI Weather Reports


Display with metric or nautical units.
time (UTC)temp
F
wind
direction
speed
MPH
gust
MPH
rain 1hr
in
rain 24hr
in
rain mn
in
humidity
%
barometer
mb
20260503173834 59 269 9.0 19.0 0.00 0.00 0.00 43 1015.3
20260503173323 60 239 5.0 13.0 0.00 0.00 0.00 44 1015.2
20260503172321 59 236 3.0 14.0 0.00 0.00 0.00 49 1015.2
20260503171831 59 222 6.0 14.0 0.00 0.00 0.00 45 1015.4
20260503171320 59 275 6.0 15.0 0.00 0.00 0.00 45 1015.4
20260503170828 59 241 6.0 15.0 0.00 0.00 0.00 43 1015.5
20260503170332 59 231 4.0 14.0 0.00 0.00 0.00 45 1015.4
20260503150825 56 255 6.0 15.0 0.00 0.00 0.00 49 1016.6
20260503150332 55 262 2.0 14.0 0.00 0.00 0.00 55 1016.6
20260503131330 49 245 2.0 12.0 0.00 0.00 0.00 59 1017.1
20260503130853 49 233 3.0 9.0 0.00 0.00 0.00 59 1017.0
20260503130319 49 214 2.0 9.0 0.00 0.00 0.00 59 1017.0
20260503110823 39 214 0.0 0.0 0.00 0.00 0.00 74 1016.6
20260503110328 39 212 0.0 0.0 0.00 0.00 0.00 74 1016.7
20260503090336 39 236 0.0 0.0 0.00 0.00 0.00 75 1016.1
20260503081351 39 217 0.0 0.0 0.00 0.00 0.00 76 1016.1
20260503080838 39 227 0.0 0.0 0.00 0.00 0.00 77 1016.1
20260503080319 39 214 0.0 0.0 0.00 0.00 0.00 77 1016.1
20260503072819 38 242 0.0 0.0 0.00 0.00 0.00 80 1016.1
20260503072328 38 243 0.0 0.0 0.00 0.00 0.00 81 1016.1
20260503071816 37 243 0.0 0.0 0.00 0.00 0.00 82 1016.2
20260503071323 37 291 0.0 0.0 0.00 0.00 0.00 83 1016.1
20260503070852 37 291 0.0 0.0 0.00 0.00 0.00 83 1016.2
20260503070319 38 291 0.0 0.0 0.00 0.00 0.00 83 1016.1
20260503054833 37 291 0.0 0.0 0.00 0.00 0.00 86 1016.6
20260503054321 37 291 0.0 0.0 0.00 0.00 0.00 86 1016.6
20260503053832 37 291 0.0 0.0 0.00 0.00 0.00 86 1016.6
20260503053321 37 291 0.0 0.0 0.00 0.00 0.00 87 1016.7
20260503052830 37 291 0.0 0.0 0.00 0.00 0.00 86 1016.7
20260503052321 37 291 0.0 0.0 0.00 0.00 0.00 85 1016.8
20260503051829 37 291 0.0 0.0 0.00 0.00 0.00 85 1016.9
20260503051333 37 291 0.0 0.0 0.00 0.00 0.00 85 1016.7
20260503050821 37 291 0.0 0.0 0.00 0.00 0.00 86 1016.8
20260503050331 37 291 0.0 0.0 0.00 0.00 0.00 85 1016.7
20260503045820 38 291 0.0 0.0 0.00 0.00 0.00 86 1016.7
20260503045327 38 291 0.0 0.0 0.00 0.00 0.00 85 1016.7
20260503044835 38 292 0.0 0.0 0.00 0.00 0.00 86 1016.8
20260503044323 38 292 0.0 0.0 0.00 0.00 0.00 85 1016.7
20260503043832 38 292 0.0 0.0 0.00 0.00 0.00 86 1016.7
20260503043342 38 292 0.0 0.0 0.00 0.00 0.00 88 1016.7
20260503042828 38 292 0.0 0.0 0.00 0.00 0.00 87 1016.7
20260503042333 38 292 0.0 0.0 0.00 0.00 0.00 87 1016.6
20260503041821 38 292 0.0 0.0 0.00 0.00 0.00 85 1016.7
20260503041330 38 292 0.0 0.0 0.00 0.00 0.00 84 1016.6
20260503040818 38 292 0.0 0.0 0.00 0.00 0.00 84 1016.6
20260503040327 38 292 0.0 0.0 0.00 0.00 0.00 84 1016.6
20260503035832 38 292 0.0 0.0 0.00 0.00 0.00 83 1016.6
20260503035320 38 292 0.0 0.0 0.00 0.00 0.00 83 1016.6
20260503034832 39 292 0.0 0.0 0.00 0.00 0.00 84 1016.7
20260503034342 39 292 0.0 0.0 0.00 0.00 0.00 83 1016.6
20260503033827 39 292 0.0 0.0 0.00 0.00 0.00 85 1016.8
20260503033335 39 292 0.0 0.0 0.00 0.00 0.00 84 1016.7
20260503032825 39 292 0.0 0.0 0.00 0.00 0.00 81 1016.7
20260503032335 39 293 0.0 0.0 0.00 0.00 0.00 80 1016.8
20260503031827 39 293 0.0 0.0 0.00 0.00 0.00 80 1016.8
20260503031335 39 293 0.0 0.0 0.00 0.00 0.00 80 1016.8
20260503030823 39 293 0.0 0.0 0.00 0.00 0.00 79 1016.8
20260503030331 39 293 0.0 0.0 0.00 0.00 0.00 77 1016.9
20260503025841 39 293 0.0 0.0 0.00 0.00 0.00 77 1016.9
20260503025328 40 293 0.0 0.0 0.00 0.00 0.00 78 1016.9
20260503024819 40 293 0.0 0.0 0.00 0.00 0.00 78 1016.9
20260503024326 40 293 0.0 0.0 0.00 0.00 0.00 78 1016.9
20260503023833 41 293 0.0 0.0 0.00 0.00 0.00 79 1016.9
20260503023323 41 293 0.0 0.0 0.00 0.00 0.00 78 1016.8
20260503022830 41 293 0.0 0.0 0.00 0.00 0.00 77 1016.8
20260503022317 41 293 0.0 0.0 0.00 0.00 0.00 76 1016.8
20260503021824 42 293 0.0 0.0 0.00 0.00 0.00 75 1016.7
20260503021351 42 293 0.0 0.0 0.00 0.00 0.00 74 1016.7
20260503020821 42 293 0.0 0.0 0.00 0.00 0.00 75 1016.7
20260503020357 42 293 0.0 0.0 0.00 0.00 0.00 74 1016.7
20260503015824 42 293 0.0 0.0 0.00 0.00 0.00 70 1016.6
20260503015333 43 293 0.0 0.0 0.00 0.00 0.00 66 1016.6
20260503014843 43 293 0.0 0.0 0.00 0.00 0.00 66 1016.5
20260503014352 44 293 0.0 0.0 0.00 0.00 0.00 68 1016.4
20260503013819 44 297 0.0 0.0 0.00 0.00 0.00 64 1016.4
20260503013328 45 297 0.0 0.0 0.00 0.00 0.00 63 1016.4
20260503012833 46 294 0.0 0.0 0.00 0.00 0.00 63 1016.4
20260503012323 46 294 0.0 0.0 0.00 0.00 0.00 61 1016.4
20260503011834 47 294 0.0 0.0 0.00 0.00 0.00 60 1016.4
20260503011321 47 295 0.0 0.0 0.00 0.00 0.00 56 1016.1
20260503010829 47 295 0.0 0.0 0.00 0.00 0.00 55 1016.2
20260503010316 48 297 0.0 0.0 0.00 0.00 0.00 59 1016.1
20260503005823 48 295 0.0 0.0 0.00 0.00 0.00 55 1016.1
20260503005332 48 295 0.0 0.0 0.00 0.00 0.00 51 1016.1
20260503004821 49 293 0.0 0.0 0.00 0.00 0.00 52 1016.2
20260503004331 49 293 0.0 0.0 0.00 0.00 0.00 50 1016.1
20260503003823 49 322 0.0 2.0 0.00 0.00 0.00 48 1016.1
20260503003357 50 311 0.0 3.0 0.00 0.00 0.00 47 1016.0
20260503002842 50 273 0.0 3.0 0.00 0.00 0.00 46 1016.1
20260503002328 50 328 0.0 6.0 0.00 0.00 0.00 48 1016.0
20260503001816 51 327 1.0 6.0 0.00 0.00 0.00 45 1016.0
20260503001351 51 330 1.0 5.0 0.00 0.00 0.00 47 1016.0
20260503000819 51 292 1.0 5.0 0.00 0.00 0.00 46 1016.0
20260503000327 51 31 3.0 5.0 0.00 0.00 0.00 48 1015.9
20260502235830 51 22 1.0 6.0 0.00 0.00 0.00 45 1015.8
20260502235318 51 23 0.0 7.0 0.00 0.00 0.00 47 1015.8
20260502234826 51 23 4.0 8.0 0.00 0.00 0.00 45 1015.8
20260502234337 51 41 5.0 8.0 0.00 0.00 0.00 46 1015.8
20260502233826 51 36 4.0 9.0 0.00 0.00 0.00 44 1015.8
20260502233334 51 18 3.0 9.0 0.00 0.00 0.00 46 1015.7
20260502232821 52 313 2.0 11.0 0.00 0.00 0.00 44 1015.9
20260502232327 52 29 5.0 11.0 0.00 0.00 0.00 46 1015.8
20260502231816 52 3 2.0 5.0 0.00 0.00 0.00 44 1015.8
20260502231350 52 323 1.0 7.0 0.00 0.00 0.00 46 1015.9
20260502230836 51 6 1.0 9.0 0.00 0.00 0.00 48 1015.9
20260502230324 51 330 1.0 9.0 0.00 0.00 0.00 48 1015.9
20260502225832 51 341 0.0 4.0 0.00 0.00 0.00 48 1015.9
20260502225321 51 321 1.0 11.0 0.00 0.00 0.00 47 1015.9
20260502224859 52 18 6.0 14.0 0.00 0.00 0.00 48 1015.9
20260502224324 52 6 5.0 14.0 0.00 0.00 0.00 49 1015.9
20260502223850 52 346 5.0 12.0 0.00 0.00 0.00 45 1015.9
20260502223318 52 24 2.0 9.0 0.00 0.00 0.00 46 1015.9
20260502222828 51 10 1.0 9.0 0.00 0.00 0.00 46 1016.0
20260502222316 51 6 4.0 10.0 0.00 0.00 0.00 47 1016.0
20260502221825 52 330 3.0 10.0 0.00 0.00 0.00 48 1016.0
20260502221332 52 328 5.0 9.0 0.00 0.00 0.00 47 1015.9
20260502220840 51 299 0.0 5.0 0.00 0.00 0.00 46 1015.8
20260502220326 51 319 1.0 6.0 0.00 0.00 0.00 46 1015.9
20260502215835 51 281 2.0 10.0 0.00 0.00 0.00 47 1015.9
20260502215322 51 313 3.0 10.0 0.00 0.00 0.00 48 1015.9
20260502214829 51 50 2.0 9.0 0.00 0.00 0.00 48 1015.9
20260502214337 51 355 1.0 10.0 0.00 0.00 0.00 49 1015.9
20260502213825 52 288 4.0 10.0 0.00 0.00 0.00 45 1016.1
20260502213335 52 310 3.0 10.0 0.00 0.00 0.00 46 1015.9
20260502212823 51 314 1.0 11.0 0.00 0.00 0.00 49 1015.9
20260502212332 51 331 3.0 15.0 0.00 0.00 0.00 45 1016.0
20260502211821 52 323 5.0 15.0 0.00 0.00 0.00 47 1015.8
20260502211329 52 296 7.0 12.0 0.00 0.00 0.00 46 1015.9
20260502210837 52 35 1.0 11.0 0.00 0.00 0.00 46 1015.8
20260502210325 52 319 6.0 13.0 0.00 0.00 0.00 46 1015.9
20260502205829 52 317 3.0 13.0 0.00 0.00 0.00 48 1015.7
20260502205335 52 314 2.0 10.0 0.00 0.00 0.00 45 1015.8
20260502204841 52 296 4.0 14.0 0.00 0.00 0.00 44 1015.8
20260502204347 52 20 7.0 14.0 0.00 0.00 0.00 48 1015.8
20260502203856 52 333 3.0 13.0 0.00 0.00 0.00 50 1015.8
20260502203345 51 8 3.0 13.0 0.00 0.00 0.00 45 1015.9
20260502202815 52 25 5.0 13.0 0.00 0.00 0.00 46 1015.9
20260502202349 51 220 2.0 8.0 0.00 0.00 0.00 46 1015.9
20260502201837 51 302 2.0 12.0 0.00 0.00 0.00 48 1016.0
20260502201346 51 6 6.0 14.0 0.00 0.00 0.00 46 1016.1
20260502200833 52 321 7.0 14.0 0.00 0.00 0.00 48 1016.0
20260502200322 52 344 4.0 13.0 0.00 0.00 0.00 46 1016.1
20260502195827 52 265 3.0 10.0 0.00 0.00 0.00 49 1015.9
20260502195333 52 347 2.0 14.0 0.00 0.00 0.00 52 1016.2
20260502194819 51 35 6.0 14.0 0.00 0.00 0.00 50 1016.2
20260502194328 52 313 6.0 11.0 0.00 0.00 0.00 52 1016.1
20260502193816 51 319 4.0 9.0 0.00 0.00 0.00 48 1016.2
20260502193323 51 313 0.0 15.0 0.00 0.00 0.00 50 1016.2
20260502192833 51 298 4.0 16.0 0.00 0.00 0.00 49 1016.4
20260502192321 50 316 5.0 15.0 0.00 0.00 0.00 49 1016.3
20260502191829 50 32 9.0 15.0 0.00 0.00 0.00 48 1016.4
20260502191335 50 347 6.0 12.0 0.00 0.00 0.00 51 1016.5
20260502190824 51 298 4.0 11.0 0.00 0.00 0.00 50 1016.5
20260502190334 51 359 6.0 11.0 0.00 0.00 0.00 56 1016.4
20260502185824 50 335 5.0 10.0 0.00 0.00 0.00 49 1016.5
20260502185329 51 315 3.0 13.0 0.00 0.00 0.00 50 1016.6
20260502184837 51 352 5.0 13.0 0.00 0.00 0.00 50 1016.5
20260502184326 51 20 4.0 12.0 0.00 0.00 0.00 50 1016.5
20260502183833 50 280 2.0 15.0 0.00 0.00 0.00 50 1016.6
20260502183341 50 296 2.0 15.0 0.00 0.00 0.00 47 1016.6
20260502182827 50 319 4.0 12.0 0.00 0.00 0.00 54 1016.7
20260502182328 50 324 3.0 13.0 0.00 0.00 0.00 48 1016.7
20260502181837 50 360 7.0 13.0 0.00 0.00 0.00 49 1016.7
20260502181323 50 333 6.0 12.0 0.00 0.00 0.00 50 1016.7
20260502180832 50 291 1.0 9.0 0.00 0.00 0.00 50 1016.8
20260502180321 50 280 1.0 10.0 0.00 0.00 0.00 50 1016.8